Захедан

Иран     29°29′25″N   60°50′31″E
темп.,
°C
ветер,
м/с
пор.,
м/с
влажн.,
%
обл.,
%
осадки,
мм/ч
давл.,
гПа
погр.,
м
15 мая, сб
сб1501:30+18ссв11132 0.0 100911
04:30+17зсз11173 0.0 100911
07:30+19сз12151 0.0 1010209
10:30+24ссз571335 0.0 10091444
13:30+26ссз671351 0.0 10073326
16:30+27ссз761381 0.0 10063690
19:30+24св67138 0.0 1008585
22:30+21ссв22163 0.0 101132
16 мая, вс
вс1601:30+19вюв2219100 0.0 101011
04:30+17в112364 0.0 101111
07:30+19в12200 0.0 1013267
10:30+23всв22150 0.0 10121442
13:30+27ссв25114 0.0 10093786
16:30+28с351086 0.0 10073508
19:30+24всв65140 0.0 1010634
22:30+22в22160 0.0 101225
17 мая, пн
пн1701:30+20св22182 0.0 101212
04:30+18всв22181 0.0 101312
07:30+20всв22142 0.0 1014224
10:30+24в21125 0.0 1014801
13:30+29св561274 0.0 10103493
16:30+28в261332 0.0 10083067
19:30+25св45140 0.0 1011336
22:30+23юв11160 0.0 101211
18 мая, вт
вт1801:30+21св22170 0.0 101111
04:30+18св22180 0.0 101111
07:30+21всв11130 0.0 1013204
10:30+26с37100 0.0 10111856
13:30+29с5780 0.0 10083492
16:30+29ссв7880 0.0 10073425
19:30+26св33100 0.0 100856
22:30+23всв22120 0.0 101013
19 мая, ср
ср1901:30+20ссв11130 0.0 100911
04:30+19сз11130 0.0 100911
07:30+23зсз11100 0.0 1010131
10:30+28с51090 0.0 10092563
13:30+30ссв7970 0.0 10073122
16:30+30ссв6990 0.0 10053630
19:30+28всв45113 0.0 100682
22:30+24с11150 0.0 100711